User: anonymous   Login
Location: Meanaryar
(48.4161°N, 4.7315°W)
Time: 20:39:14
(UTC+00:00)
Language:

SJ 16-02 - Orbit

View from above orbital plane
View from above orbital plane
View from above satellite
View from above satellite

Ground track
Ground track

The orbit data is extracted from the following two-line orbital elements,

1 41634U 16043A   20333.51533589  .00000193  00000-0  25389-4 0  9996
2 41634  75.0015 125.9359 0008263 261.1884  98.8355 14.85734589239603
Epoch (UTC): 28 November 2020 12:22:05
Eccentricity: 0.0008263
inclination: 75.0015°
perigee height: 605 km
apogee height: 617 km
right ascension of ascending node: 125.9359°
argument of perigee: 261.1884°
revolutions per day: 14.85734589
mean anomaly at epoch: 98.8355°
orbit number at epoch: 23960

The dashed part of the orbit path shows where the satellite is in the earth's shadow,  

DLR